Retour au catalogue

O3B FM4

ActifCommunicationsMEO
NORAD 39189·PAYLOAD·🇱🇺 Luxembourg

Lancé Jun 25, 2013 depuis Guiana Space Centre

Loading…

Prochains Passages (prochaines 24 heures)

TLE

FraisSource: CelesTrak SupGP

Époque: Sep 15, 2026, 00:00 UTC

1 39189C 13031B   26258.00000000  .00000000  00000+0  00000+0 0  2587
2 39189   0.0404 356.0707 0004441 149.7457  15.8503  5.00115808    19

Suivez O3B FM4 en temps réel avec AllMySat

Download on the App Store